Showing default

IRIDIUM 100, 42956

Orbit data source: Space-Track

IRIDIUM 100, 42956 is a payload satellite owned by Iridium (US) in LEO that was launched on Mon, 09 Oct 2017 UTC via an FALCON 9 launch vehicle from the Air Force Western Test Range (AFWTR). Payload-class satellites include a variety of spacecraft equipped with specific instruments for various scientific and technological missions. These include communications satellites like Starlink; space stations such as the ISS; scientific satellites like the Hubble; Earth observation satellites from companies like Planet Labs, Umbra, and HawkEye 360; GPS; miniature CubeSats for education and research; and military/defense satellites.

Loading next visibility...
Identifier
42956, 2017-061B
Orbit
LEO
Country
Flag of USUS
Related business
Manufacturer
OATK SSG Gilbert
Mission
Operational Commercial Communications
Bus & Motor
ELITEBUS, Unknown motor
Mass
860 kg wet, 700 kg dry
Launch date (UTC)
2017-10-09 (8 years ago)
Launch vehicle
FALCON 9
Launch site
Air Force Western Test Range (AFWTR)
Object type
Payload
Rocket body
Debris
Shape & HBR
Trap Box + 2 Pan, 4.8 m
Radar Cross Section
10.154 m², Large (>1 m²)

Expand to show TLE details & history
Last TLE update: 9 hours ago

TLE from 9 hours ago
0 IRIDIUM 100
1 42956U 17061B   25307.74266877 -.00000001  00000-0 -72607-5 0  9995
2 42956  86.3938 119.4602 0001902  85.4744 274.6669 14.34217366422467
Epoch: 2025-11-03T17:49Z
TLE epoch observation values (Epoch: 2025-11-03T17:49:26.581Z)
Latitude
-0.00004°
Longitude
168.85977°
Altitude
780.609 km
Speed
7.464 km/s
True Right ascension
07h 57m 50s
True Declination
0° 00' 00"
Sunlit
Object was in daylight at epoch
Visualization orbit readout
Latitude
Unknown
Longitude
Unknown
Altitude
Unknown
Speed
Unknown
Apparent Right ascension
Unknown
Apparent Declination
Unknown
Sunlit
N/A
Visualization observer readout
Local Sidereal Time
22:44:45
Azimuth
Unknown
Elevation
Unknown
Doppler factor
Unknown
Orbital elements
Apogee altitude
775.993 km
Perigee altitude
773.273 km
Semi-major axis
7,152.77 km
Eccentricity
0.00019
Inclination
86.3938°
RAAN
119.4602°
Arg. of periapsis
85.4744°
True anomaly
274.64518°
Mean anomaly
274.6669°
Eccentric anomaly
274.65604°
Mean motion
3.58783 °/min
Orbital period
100.34 mins
BSTAR
-0.0000072607
Loading maneuver chart data...
Computing Atmospheric mass density...
Loading historical data...
Loading historical data...
Loading historical data...
Loading historical data...
Loading historical data...
Loading historical data...
Loading historical data...

Documentation

Showing up to 5 results
|